Location: Góry Miechowskie
(50.3599°N, 20.1803°E)
Time: 04:17:28
(UTC+00:00)

Vanguard 2 Rocket - Pass Details

Date: 22 September 2024
Orbit: 553 x 3298 km, 32.9° (Epoch: 14 October)

Event Time Altitude Azimuth Distance (km) Brightness Sun altitude
Exits shadow 23:03:03 12° 116° (ESE) 4,363 10.2 -39.4°
Drops below altitude 10° 23:04:13 10° 113° (ESE) 4,673 10.4 -39.3°
Sets 23:09:46 0° 103° (ESE) 6,187 11.2 -39.2°
